Torna al catalogo

STARLINK-31982

AttivoComunicazioniVLEO
NORAD 60022·PAYLOAD·🇺🇸 United States

Lanciato Jun 8, 2024 da Cape Canaveral Space Force Station

Loading…

Prossimi Passaggi (prossime 24 ore)

TLE

AggiornatoSource: CelesTrak SupGP

Epoca: Sep 14, 2026, 20:48 UTC

1 60022C 24111G   26257.86715278  .00040274  00000+0  11904-2 0  2575
2 60022  53.1570 272.3291 0001203  95.4273 210.9761 15.34357189    18

Traccia STARLINK-31982 in tempo reale con AllMySat

Download on the App Store